Regional Weather Roundup
Issued by NWS

Home | Current Version | Previous Version | Text Only | Print | Product List | Glossary Off
Versions: 1 2 3 4 5 6 7 8 9 10 11 12 13 14 15 16 17 18 19 20 21 22 23 24 25 26 27 28 29 30 31 32 33 34 35 36 37 38 39 40 41 42 43 44 45 46 47 48 49 50

371
ASUS44 KJAN 212103
RWRMS

MISSISSIPPI HOURLY WEATHER ROUNDUP
NATIONAL WEATHER SERVICE JACKSON MS
300 PM CST FRI NOV 21 2014

NOTE: "FAIR: INDICATES FEW OR NO CLOUDS BELOW 12,000 FEET WITH NO
SIGNIFICANT WEATHER AND/OR OBSTRUCTIONS TO VISIBILITY.

MSZ001>002-007>008-010>013-018>021-025>028-034>036-212200-
NORTHWEST MISSISSIPPI

CITY           SKY/WX    TMP DP  RH WIND       PRES   REMARKS
CLARKSDALE     FAIR      64  50  59 SE6       30.26S
CLEVELAND      MOCLDY    68  49  51 MISG      30.23S
GREENWOOD      PTSUNNY   68  44  42 S12       30.24S
GREENVILLE     CLOUDY    70  45  40 SE14      30.22S
GRENADA        FAIR      63  48  59 E8        30.26S
OLIVE BRANCH   CLOUDY    54  43  66 E6        30.28F
OXFORD         FAIR      61  45  55 SE6       30.29S
TUNICA         PTCLDY    55  48  76 N5        30.28R
$$

MSZ003>006-009-014>017-022>024-029>033-037>039-212200-
NORTHEAST MISSISSIPPI

CITY           SKY/WX    TMP DP  RH WIND       PRES   REMARKS
COLUMBUS AFB   SUNNY     66  46  47 SE6       30.29F
CORINTH        CLOUDY    61  34  36 SE7       30.30S
GOLDN TRIANGLE MOSUNNY   66  46  48 SE7       30.28F
STARKVILLE     FAIR      66  46  48 SE6       30.28R
TUPELO         CLOUDY    63  44  50 S6        30.29F
$$

MSZ040-058-212200-
CENTRAL MISSISSIPPI

CITY           SKY/WX    TMP DP  RH WIND       PRES   REMARKS
JACKSON INTL   CLOUDY    68  44  42 SE12      30.25R
JACKSON HAWKNS CLOUDY    68  43  40 SE14      30.25R
MERIDIAN KEY   SUNNY     83  42  23 SE10      30.27S
MERIDIAN NAS   MOSUNNY   69  44  40 SE9       30.28S
RAYMOND        FAIR      68  64  88 SE13G18   30.24S
VICKSBURG      CLOUDY    68  46  45 S9        30.23S
$$

MSZ059>079-212200-
SOUTH MISSISSIPPI

CITY           SKY/WX    TMP DP  RH WIND       PRES   REMARKS
BROOKHAVEN     FAIR      70  46  43 SE10G16   30.25S
HATTIESBURG    SUNNY     71  43  36 SE8       30.26F
MCCOMB         MOSUNNY   69  45  41 SE14      30.23F
NATCHEZ        CLOUDY    68  46  45 SE8       30.22F
PINE BELT      SUNNY     70  43  37 SE12      30.27S
$$

MSZ080>082-212200-
COASTAL MISSISSIPPI

CITY           SKY/WX    TMP DP  RH WIND       PRES   REMARKS
BAY ST LOUIS   SUNNY     66  45  45 SE12      30.26F
BILOXI         SUNNY     66  42  42 SE12G18   30.26F
PASCAGOULA     SUNNY     67  42  40 SE10      30.27S
GULFPORT       SUNNY     66  41  40 SE17G26   30.26F
$$



USA.gov is the U.S. government's official web portal to all federal, state and local government web resources and services.